N13SY KTEB-KMDW

Flight info

Callsign N13SY
Flight time 1h 39m
Altitude 43000
Route NEWEL J60 DJB ASHEN PANGG7
Aircraft C750/M-SBDE3FGHRWXY/S

Departure

Time 2026-05-04 15:55
Airport Teterboro Airport (KTEB)

Arrival

Time 2026-05-04 17:34
Airport Chicago Midway International Airport (KMDW)
Time Latitude Longitude Altitude Speed Heading
2026-05-04 15:35 40.85631 -74.06224 0 ft 0 kts 336°
2026-05-04 15:48 40.85638 -74.06225 11 ft 3 kts
2026-05-04 15:48 40.85626 -74.06138 11 ft 8 kts 115°
2026-05-04 15:49 40.85637 -74.06078 12 ft 8 kts 33°
2026-05-04 15:49 40.85705 -74.06060 11 ft 12 kts
2026-05-04 15:49 40.85776 -74.06028 11 ft 5 kts 64°
2026-05-04 15:49 40.85780 -74.06015 11 ft 2 kts 75°
2026-05-04 15:50 40.85782 -74.05996 11 ft 0 kts 85°
2026-05-04 15:50 40.85782 -74.05984 11 ft 2 kts 94°
2026-05-04 15:50 40.85781 -74.05964 12 ft 3 kts 95°
2026-05-04 15:50 40.85777 -74.05847 15 ft 14 kts 86°
2026-05-04 15:51 40.85794 -74.05703 17 ft 18 kts 79°
2026-05-04 15:51 40.85811 -74.05563 19 ft 9 kts 81°
2026-05-04 15:51 40.85817 -74.05522 17 ft 0 kts 79°
2026-05-04 15:51 40.85817 -74.05520 17 ft 0 kts 81°
2026-05-04 15:53 40.85806 -74.05463 18 ft 13 kts 127°
2026-05-04 15:53 40.85665 -74.05563 18 ft 65 kts 227°
2026-05-04 15:54 40.85165 -74.06291 74 ft 133 kts 226°
2026-05-04 15:54 40.84696 -74.06984 427 ft 137 kts 227°
2026-05-04 15:54 40.84644 -74.07063 466 ft 138 kts 227°
2026-05-04 15:55 40.83965 -74.08099 613 ft 157 kts 228°
2026-05-04 15:55 40.83293 -74.09226 964 ft 161 kts 242°
2026-05-04 15:55 40.83193 -74.10772 1485 ft 179 kts 269°
2026-05-04 15:55 40.83238 -74.12571 1713 ft 218 kts 268°
2026-05-04 15:56 40.83240 -74.14743 1844 ft 250 kts 267°
2026-05-04 15:56 40.83239 -74.16976 3303 ft 234 kts 268°
2026-05-04 15:56 40.83259 -74.19136 4459 ft 240 kts 270°
2026-05-04 15:56 40.83491 -74.21350 5530 ft 244 kts 278°
2026-05-04 15:57 40.83788 -74.23562 6701 ft 246 kts 277°
2026-05-04 15:57 40.84000 -74.25823 7762 ft 250 kts 275°
2026-05-04 15:57 40.84190 -74.28125 8957 ft 253 kts 276°
2026-05-04 15:57 40.84408 -74.30456 9999 ft 259 kts 277°
2026-05-04 15:58 40.84644 -74.32883 10548 ft 278 kts 277°
2026-05-04 15:58 40.84893 -74.35539 10755 ft 305 kts 277°
2026-05-04 15:58 40.85159 -74.38435 11046 ft 325 kts 277°
2026-05-04 15:58 40.85431 -74.41382 11955 ft 324 kts 277°
2026-05-04 15:59 40.85694 -74.44205 12681 ft 329 kts 277°
2026-05-04 15:59 40.85973 -74.47220 13463 ft 333 kts 277°
2026-05-04 15:59 40.86254 -74.50280 14195 ft 336 kts 277°
2026-05-04 15:59 40.86532 -74.53310 14908 ft 338 kts 277°
2026-05-04 16:00 40.86816 -74.56414 15592 ft 342 kts 277°
2026-05-04 16:00 40.87102 -74.59549 16331 ft 344 kts 277°
2026-05-04 16:00 40.87389 -74.62705 17090 ft 348 kts 277°
2026-05-04 16:00 40.87678 -74.65898 17848 ft 351 kts 277°
2026-05-04 16:01 40.87969 -74.69116 18557 ft 355 kts 277°
2026-05-04 16:01 40.88264 -74.72384 19217 ft 360 kts 278°
2026-05-04 16:01 40.88560 -74.75688 19865 ft 364 kts 278°
2026-05-04 16:01 40.88860 -74.79034 20540 ft 369 kts 278°
2026-05-04 16:02 40.89163 -74.82421 21182 ft 373 kts 278°
2026-05-04 16:02 40.89367 -74.84725 21619 ft 376 kts 278°
2026-05-04 16:02 40.89982 -74.91678 22914 ft 385 kts 279°
2026-05-04 16:03 40.90295 -74.95214 23539 ft 389 kts 279°
2026-05-04 16:03 40.90607 -74.98783 24134 ft 392 kts 279°
2026-05-04 16:03 40.90921 -75.02376 24698 ft 395 kts 279°
2026-05-04 16:03 40.91238 -75.06004 25283 ft 398 kts 279°
2026-05-04 16:04 40.91553 -75.09638 25886 ft 400 kts 279°
2026-05-04 16:04 40.91765 -75.17062 27001 ft 410 kts 268°
2026-05-04 16:04 40.91292 -75.20801 27583 ft 417 kts 260°
2026-05-04 16:05 40.90459 -75.24501 28176 ft 421 kts 256°
2026-05-04 16:05 40.89580 -75.28207 28750 ft 425 kts 257°
2026-05-04 16:05 40.87845 -75.35682 29880 ft 432 kts 257°
2026-05-04 16:06 40.86944 -75.39484 30372 ft 435 kts 256°
2026-05-04 16:06 40.84515 -75.49752 31932 ft 436 kts 257°
2026-05-04 16:07 40.83321 -75.54793 32822 ft 434 kts 256°
2026-05-04 16:07 40.80666 -75.65948 34609 ft 431 kts 256°
2026-05-04 16:08 40.79765 -75.69723 35170 ft 431 kts 256°
2026-05-04 16:08 40.77121 -75.80768 36930 ft 427 kts 255°
2026-05-04 16:09 40.75331 -75.88209 38199 ft 424 kts 255°
2026-05-04 16:09 40.73550 -75.95600 39249 ft 422 kts 255°
2026-05-04 16:10 40.71776 -76.02930 40172 ft 422 kts 255°
2026-05-04 16:11 40.69095 -76.13967 41601 ft 421 kts 254°
2026-05-04 16:11 40.68201 -76.17641 42071 ft 420 kts 254°
2026-05-04 16:12 40.67440 -76.29056 42963 ft 428 kts 277°
2026-05-04 16:12 40.68842 -76.38633 43008 ft 449 kts 280°
2026-05-04 16:13 40.70047 -76.46806 42996 ft 464 kts 280°
2026-05-04 16:13 40.71309 -76.55266 42995 ft 475 kts 280°
2026-05-04 16:14 40.73850 -76.72563 42954 ft 482 kts 280°
2026-05-04 16:16 40.77000 -76.94266 42947 ft 482 kts 279°
2026-05-04 16:17 40.80104 -77.15953 42961 ft 483 kts 279°
2026-05-04 16:18 40.82568 -77.33380 42960 ft 484 kts 279°
2026-05-04 16:19 40.85623 -77.55277 42945 ft 485 kts 279°
2026-05-04 16:20 40.88639 -77.77214 42944 ft 485 kts 279°
2026-05-04 16:22 40.91613 -77.99167 42946 ft 485 kts 279°
2026-05-04 16:23 40.94872 -78.25463 42929 ft 485 kts 278°
2026-05-04 16:25 40.98070 -78.51911 42924 ft 485 kts 278°
2026-05-04 16:26 41.01623 -78.81828 42901 ft 485 kts 278°
2026-05-04 16:28 41.04178 -79.03789 42906 ft 485 kts 278°
2026-05-04 16:29 41.07700 -79.34707 42918 ft 486 kts 278°
2026-05-04 16:31 41.10168 -79.56829 42917 ft 486 kts 278°
2026-05-04 16:32 41.13079 -79.83454 42904 ft 486 kts 278°
2026-05-04 16:33 41.14826 -79.99718 42906 ft 486 kts 278°
2026-05-04 16:34 41.16239 -80.13029 42905 ft 486 kts 277°
2026-05-04 16:35 41.19018 -80.39687 42897 ft 486 kts 277°
2026-05-04 16:36 41.20377 -80.52949 42881 ft 485 kts 277°
2026-05-04 16:37 41.21729 -80.66308 42881 ft 486 kts 277°
2026-05-04 16:38 41.23505 -80.84086 42882 ft 486 kts 277°
2026-05-04 16:39 41.25682 -81.06284 42864 ft 485 kts 277°
2026-05-04 16:40 41.27375 -81.23869 42867 ft 485 kts 277°
2026-05-04 16:41 41.29470 -81.46035 42859 ft 485 kts 277°
2026-05-04 16:43 41.31525 -81.68253 42822 ft 484 kts 277°
2026-05-04 16:43 41.32735 -81.81570 42821 ft 485 kts 277°
2026-05-04 16:45 41.35110 -82.08236 42831 ft 484 kts 276°
2026-05-04 16:46 41.36654 -82.30500 42835 ft 484 kts 275°
2026-05-04 16:47 41.37692 -82.48322 42822 ft 484 kts 275°
2026-05-04 16:48 41.38703 -82.66195 42801 ft 484 kts 274°
2026-05-04 16:49 41.39679 -82.83936 42792 ft 484 kts 274°
2026-05-04 16:50 41.40631 -83.01737 42796 ft 484 kts 274°
2026-05-04 16:51 41.41291 -83.14408 42797 ft 485 kts 274°
2026-05-04 16:52 41.42200 -83.32336 42797 ft 484 kts 274°
2026-05-04 16:53 41.42841 -83.45291 42796 ft 484 kts 274°
2026-05-04 16:54 41.43703 -83.63224 42794 ft 484 kts 274°
2026-05-04 16:55 41.44922 -83.89675 42777 ft 484 kts 274°
2026-05-04 16:56 41.45908 -84.12071 42776 ft 484 kts 274°
2026-05-04 16:57 41.46468 -84.25293 41641 ft 459 kts 274°
2026-05-04 16:58 41.46971 -84.37474 39928 ft 420 kts 274°
2026-05-04 16:58 41.47125 -84.41268 39390 ft 409 kts 274°
2026-05-04 16:59 41.47424 -84.48700 38295 ft 397 kts 274°
2026-05-04 17:00 41.47999 -84.63355 36190 ft 401 kts 275°
2026-05-04 17:00 41.48445 -84.74425 34603 ft 393 kts 277°
2026-05-04 17:01 41.48728 -84.81628 33525 ft 385 kts 277°
2026-05-04 17:01 41.49009 -84.88733 32505 ft 384 kts 277°
2026-05-04 17:02 41.49284 -84.95887 31488 ft 387 kts 276°
2026-05-04 17:02 41.49557 -85.03082 30453 ft 390 kts 276°
2026-05-04 17:03 41.49693 -85.06714 29981 ft 389 kts 276°
2026-05-04 17:03 41.49821 -85.10232 29399 ft 380 kts 276°
2026-05-04 17:03 41.50081 -85.17258 28400 ft 380 kts 276°
2026-05-04 17:04 41.50334 -85.24307 27390 ft 380 kts 276°
2026-05-04 17:04 41.50581 -85.31310 26394 ft 376 kts 276°
2026-05-04 17:05 41.50824 -85.38254 25407 ft 373 kts 275°
2026-05-04 17:05 41.51058 -85.45144 24423 ft 370 kts 275°
2026-05-04 17:06 41.51286 -85.51876 23456 ft 368 kts 275°
2026-05-04 17:06 41.51398 -85.55277 22919 ft 366 kts 275°
2026-05-04 17:07 41.51619 -85.62032 21947 ft 363 kts 275°
2026-05-04 17:07 41.51680 -85.64264 21624 ft 363 kts 274°
2026-05-04 17:07 41.51754 -85.68704 21199 ft 358 kts 274°
2026-05-04 17:07 41.51814 -85.72060 20836 ft 364 kts 274°
2026-05-04 17:08 41.51893 -85.75426 20345 ft 362 kts 274°
2026-05-04 17:08 41.52031 -85.82114 19378 ft 359 kts 274°
2026-05-04 17:08 41.52092 -85.85448 18900 ft 358 kts 274°
2026-05-04 17:09 41.52157 -85.88761 18420 ft 358 kts 274°
2026-05-04 17:09 41.52223 -85.92082 17932 ft 357 kts 274°
2026-05-04 17:09 41.52285 -85.95371 17430 ft 354 kts 274°
2026-05-04 17:10 41.52404 -86.01861 16497 ft 350 kts 273°
2026-05-04 17:10 41.52457 -86.11502 15095 ft 344 kts 271°
2026-05-04 17:11 41.52468 -86.14688 14635 ft 342 kts 271°
2026-05-04 17:11 41.52470 -86.17855 14183 ft 340 kts 270°
2026-05-04 17:11 41.52424 -86.24050 13263 ft 331 kts 269°
2026-05-04 17:12 41.52410 -86.27108 12811 ft 328 kts 269°
2026-05-04 17:12 41.52382 -86.33155 11944 ft 323 kts 269°
2026-05-04 17:13 41.52327 -86.41837 11056 ft 288 kts 269°
2026-05-04 17:14 41.52267 -86.50412 10668 ft 309 kts 269°
2026-05-04 17:14 41.52247 -86.53208 10394 ft 285 kts 269°
2026-05-04 17:14 41.52210 -86.58078 10027 ft 245 kts 268°
2026-05-04 17:15 41.52191 -86.60307 10030 ft 241 kts 268°
2026-05-04 17:15 41.52152 -86.64949 10049 ft 266 kts 268°
2026-05-04 17:16 41.52104 -86.70477 10057 ft 314 kts 269°
2026-05-04 17:16 41.52038 -86.77950 9528 ft 248 kts 268°
2026-05-04 17:17 41.52015 -86.80222 9301 ft 243 kts 268°
2026-05-04 17:17 41.51945 -86.87089 8681 ft 251 kts 268°
2026-05-04 17:18 41.51921 -86.89430 8469 ft 253 kts 268°
2026-05-04 17:18 41.51872 -86.94128 8019 ft 253 kts 268°
2026-05-04 17:19 41.51814 -86.98780 7584 ft 252 kts 268°
2026-05-04 17:19 41.51761 -87.03486 7133 ft 251 kts 267°
2026-05-04 17:20 41.51707 -87.08065 6695 ft 248 kts 268°
2026-05-04 17:20 41.51751 -87.12675 6233 ft 250 kts 278°
2026-05-04 17:20 41.52403 -87.14843 6006 ft 256 kts 297°
2026-05-04 17:21 41.55220 -87.17708 6059 ft 268 kts 333°
2026-05-04 17:21 41.58157 -87.19152 6044 ft 271 kts 333°
2026-05-04 17:22 41.60529 -87.20346 6028 ft 272 kts 333°
2026-05-04 17:22 41.61699 -87.20933 6029 ft 271 kts 333°
2026-05-04 17:23 41.66964 -87.23567 6024 ft 271 kts 333°
2026-05-04 17:23 41.68739 -87.24458 6010 ft 273 kts 333°
2026-05-04 17:23 41.72316 -87.26254 5627 ft 275 kts 334°
2026-05-04 17:24 41.74108 -87.27153 5385 ft 274 kts 334°
2026-05-04 17:24 41.79288 -87.30212 4679 ft 271 kts 330°
2026-05-04 17:25 41.80979 -87.31246 4446 ft 271 kts 329°
2026-05-04 17:25 41.84048 -87.33881 3885 ft 248 kts 303°
2026-05-04 17:26 41.85025 -87.37644 3522 ft 197 kts 268°
2026-05-04 17:26 41.85024 -87.42630 3102 ft 172 kts 265°
2026-05-04 17:27 41.85021 -87.45891 3004 ft 178 kts 266°
2026-05-04 17:27 41.85019 -87.49257 3012 ft 181 kts 266°
2026-05-04 17:28 41.85016 -87.52595 3009 ft 180 kts 265°
2026-05-04 17:29 41.84885 -87.57593 3011 ft 183 kts 263°
2026-05-04 17:29 41.84659 -87.62750 2710 ft 197 kts 263°
2026-05-04 17:30 41.84516 -87.64436 2480 ft 192 kts 253°
2026-05-04 17:31 41.83555 -87.66533 2152 ft 173 kts 231°
2026-05-04 17:32 41.82231 -87.68921 1698 ft 137 kts 232°
2026-05-04 17:33 41.80713 -87.71679 1150 ft 113 kts 232°
2026-05-04 17:33 41.80301 -87.72563 1072 ft 110 kts 237°
2026-05-04 17:34 41.78943 -87.74628 632 ft 81 kts 220°
2026-05-04 17:34 41.78642 -87.75004 629 ft 30 kts 224°
2026-05-04 17:35 41.78310 -87.75289 626 ft 12 kts 141°
2026-05-04 17:35 41.78182 -87.75383 626 ft 7 kts 209°
2026-05-04 17:35 41.78173 -87.75400 626 ft 6 kts 233°
2026-05-04 17:36 41.78125 -87.75472 631 ft 13 kts 227°
2026-05-04 17:36 41.78061 -87.75550 626 ft 7 kts 181°
2026-05-04 17:36 41.78027 -87.75532 626 ft 8 kts 137°
2026-05-04 17:36 41.78022 -87.75459 626 ft 9 kts 67°
2026-05-04 17:37 41.78060 -87.75396 631 ft 8 kts 41°
2026-05-04 17:37 41.78074 -87.75379 626 ft 0 kts 44°